Wind_Speed
7 7 8 8 8 7 7 6 5 5 6 6 7 7 7 7 7 8 9 9 9 10 10 11 11 12 12 12 12 12 13 13 13 14 14 15 15 17 17 18 18 18 19 18 18 17 17 16 16
7 8 8 8 8 7 7 6 6 6 6 7 7 8 7 7 8 8 9 9 9 10 10 10 10 11 11 12 12 12 13 13 14 14 15 15 16 17 17 18 19 20 20 20 19 19 18 18 17
8 8 8 8 8 8 8 7 7 7 7 7 7 7 7 8 8 9 9 9 9 9 9 10 10 10 10 11 12 13 13 14 15 15 16 16 17 18 19 19 19 20 20 21 21 20 20 19 18
8 8 8 8 9 9 9 8 8 8 8 8 8 7 8 8 9 9 9 9 9 9 9 8 9 9 9 10 11 13 13 14 15 15 16 17 17 17 18 19 19 19 20 20 21 21 22 21 20
9 9 9 9 10 10 10 9 10 9 8 9 8 8 8 8 8 9 9 9 8 8 8 8 8 9 10 11 11 12 13 14 14 15 15 16 17 18 18 18 19 20 20 21 21 21 23 23 22
10 10 10 10 10 11 10 9 9 10 9 9 9 8 8 8 9 9 9 8 8 8 8 8 9 10 10 11 12 12 12 13 14 15 15 15 16 17 18 18 19 20 21 21 21 21 22 24 24
12 11 11 11 11 11 10 9 9 10 10 9 9 8 8 8 9 9 8 8 8 8 8 9 10 10 11 11 12 12 13 13 14 15 15 15 16 17 18 18 19 20 20 21 21 21 21 22 24
13 13 12 12 11 11 11 10 10 9 9 8 9 8 7 8 9 9 8 8 8 8 9 9 10 11 11 12 12 12 13 14 14 15 16 16 17 18 18 19 19 20 20 21 22 22 22 22 23
15 14 13 13 12 12 12 11 10 9 9 8 8 8 8 8 9 9 9 8 8 8 9 10 11 12 12 13 13 13 14 15 16 16 17 18 18 19 19 19 20 20 20 21 22 22 22 22 23
16 15 13 13 14 14 12 12 10 10 10 8 8 8 8 9 9 9 9 8 8 8 9 11 12 13 14 14 14 15 15 16 17 17 18 19 19 19 19 19 20 20 20 21 22 22 22 23 23
17 15 14 14 14 14 13 12 11 10 10 8 8 8 9 9 9 9 8 8 8 9 10 11 12 13 14 15 16 16 17 18 18 19 19 19 20 20 20 20 20 20 20 20 21 22 23 23 23
18 16 17 16 15 14 13 12 11 10 10 9 9 9 9 9 9 9 8 8 8 9 10 11 12 14 15 15 16 17 18 19 19 20 20 20 20 20 20 21 20 21 21 20 21 22 22 23 23
19 17 16 16 15 14 13 11 11 11 10 10 10 9 9 9 9 9 8 8 9 9 10 12 13 14 15 16 17 18 18 19 20 20 21 21 22 22 21 21 21 21 21 21 21 22 22 23 23
19 18 16 15 15 14 14 12 11 11 10 10 10 10 9 8 8 8 8 8 8 9 10 12 13 14 16 17 18 18 19 19 20 21 21 22 22 22 21 21 21 20 20 20 20 21 22 23 23
20 19 18 16 15 13 14 13 12 11 9 10 10 9 9 8 8 8 8 8 9 10 11 12 13 15 16 18 19 19 19 20 20 21 22 22 22 22 22 21 20 20 20 19 19 20 21 22 23
18 17 17 16 15 13 13 13 13 11 10 10 9 9 9 8 8 8 8 8 9 10 11 12 13 15 17 18 19 19 20 20 21 21 22 22 22 22 21 21 20 19 18 18 18 18 20 21 22
17 16 15 14 14 13 13 13 12 11 10 10 10 9 9 8 7 8 7 8 9 10 11 12 14 15 17 18 19 19 20 20 21 21 22 22 22 22 21 20 19 18 18 17 17 17 18 20 22
15 14 14 13 12 13 13 12 12 12 10 10 10 9 8 8 7 8 8 8 9 10 11 12 14 15 17 18 19 20 20 20 21 21 22 22 22 21 21 20 19 18 17 16 16 16 17 19 20
15 14 13 12 13 12 12 12 11 12 10 9 9 9 9 8 7 7 7 8 9 10 11 12 14 15 17 18 19 20 20 20 21 21 22 22 22 21 21 20 19 18 17 15 15 15 16 18 19
15 14 15 14 13 11 10 10 10 10 10 9 9 9 9 9 8 7 8 8 9 10 11 12 13 15 16 17 19 20 20 21 21 21 22 22 22 21 21 20 19 18 16 15 14 14 15 16 18
14 14 14 13 12 11 9 8 8 8 9 9 8 9 9 9 9 8 8 8 9 10 11 12 13 14 15 17 19 20 21 21 21 21 22 22 22 22 21 20 19 17 15 14 13 13 14 15 16
13 12 13 12 11 9 8 7 9 8 9 8 8 8 9 9 9 8 8 8 9 9 10 12 13 14 15 17 18 20 21 21 21 22 22 22 22 21 21 20 19 17 15 13 12 12 12 13 14
13 11 11 10 9 7 6 6 9 10 10 8 7 8 8 9 9 8 8 8 9 9 10 12 13 14 16 17 18 20 21 21 22 22 22 22 21 21 21 20 20 17 15 13 12 11 11 11 13
10 9 9 6 5 5 5 6 8 10 11 8 8 9 9 9 9 8 8 9 9 9 10 11 13 14 15 17 18 19 20 21 22 21 22 22 21 21 21 20 19 17 16 14 11 10 9 9 11
8 8 7 5 3 3 4 7 9 11 10 10 9 9 9 9 9 9 8 9 9 9 10 11 12 14 15 16 18 19 20 21 21 22 22 22 22 21 21 21 19 17 16 14 11 9 8 8 9
8 7 7 5 3 3 4 6 10 10 9 11 11 10 10 10 10 9 9 9 9 9 10 11 12 14 15 16 17 18 20 21 22 22 22 22 22 21 21 21 20 18 16 14 12 9 7 7 8
7 7 6 4 3 2 2 7 11 10 10 11 11 11 11 11 10 10 9 9 9 9 10 11 12 13 15 16 17 18 19 20 21 22 22 22 22 22 21 21 19 18 16 14 12 9 7 6 7
7 7 7 5 4 2 3 6 11 12 10 10 11 11 11 11 11 10 10 10 10 10 10 11 12 13 15 16 17 18 19 20 21 21 22 22 22 22 22 21 19 18 16 14 12 10 7 6 6
6 6 7 6 5 4 4 7 12 14 13 12 12 12 12 12 12 11 11 11 10 10 11 11 12 13 14 16 16 17 18 19 20 20 21 22 22 22 22 21 19 18 17 15 13 10 8 6 5
6 8 8 9 7 7 7 10 13 15 13 13 13 13 13 12 12 12 12 11 11 11 11 11 12 13 14 15 16 17 18 18 19 20 20 21 21 21 22 21 19 18 17 16 14 11 9 7 5
Wind_Direction
343 346 349 349 342 334 330 331 326 330 324 320 315 310 312 313 311 307 307 305 305 304 301 297 293 290 288 286 285 284 285 285 286 283 276 273 273 268 263 262 260 258 257 254 248 250 251 252 255
328 330 333 338 333 333 329 329 334 329 320 312 309 311 317 318 316 312 311 310 310 309 305 304 300 298 294 291 288 288 290 291 290 289 285 279 276 272 269 267 264 259 258 254 251 250 250 251 252
312 316 323 325 323 329 324 322 327 320 315 309 307 311 315 319 318 315 315 316 316 315 312 311 309 308 304 299 296 296 295 294 292 290 288 283 281 275 272 269 266 260 256 256 253 253 251 251 250
300 306 310 313 317 319 318 318 317 313 313 310 308 312 313 318 318 318 319 320 321 323 322 323 321 317 313 308 304 302 301 299 297 295 293 289 286 284 277 270 265 262 260 259 256 256 253 249 248
289 293 296 301 307 309 309 312 310 309 308 309 308 312 314 319 319 320 321 321 324 328 327 329 329 327 323 318 313 309 307 305 302 301 298 294 290 287 283 276 268 265 264 264 261 259 254 248 245
281 285 289 296 302 303 300 299 303 304 305 306 306 310 314 318 317 319 321 322 326 330 331 333 334 333 331 327 322 315 311 310 308 305 302 299 294 291 288 282 273 268 266 265 261 258 256 251 246
273 277 281 289 295 296 297 297 298 300 301 306 305 306 313 318 318 318 319 321 326 333 337 339 338 337 334 332 328 322 318 314 311 309 307 303 298 293 290 285 279 274 271 267 263 259 257 253 249
268 271 276 279 284 293 298 298 296 297 300 303 303 302 306 315 316 318 319 322 324 331 337 340 339 339 337 336 331 328 323 319 316 313 309 306 302 297 293 288 282 278 273 268 264 260 258 254 250
265 267 270 274 281 286 290 292 296 296 294 294 299 301 305 312 314 317 320 321 324 329 333 338 340 341 341 340 337 332 328 324 319 316 313 308 304 300 295 289 285 280 275 269 264 260 259 255 251
262 260 268 271 275 282 287 290 288 296 294 293 295 302 302 309 311 313 317 319 322 326 331 336 339 341 340 339 337 334 331 328 323 318 314 310 307 304 299 293 286 281 275 270 265 262 258 254 251
260 259 260 268 273 280 286 283 287 291 291 291 293 300 302 305 309 311 314 314 318 326 333 337 339 340 339 338 336 333 331 329 327 322 317 313 310 307 303 298 291 285 278 272 266 262 256 253 251
257 259 260 266 272 277 281 281 284 284 287 291 295 300 303 304 308 310 311 312 320 328 333 336 337 337 338 337 335 332 330 328 326 324 321 318 315 311 306 301 295 287 280 273 267 261 256 252 249
254 256 257 262 270 272 276 277 279 278 281 287 293 297 301 301 307 309 309 308 315 325 332 335 335 336 336 335 334 332 330 328 326 325 323 320 317 314 309 303 298 291 284 276 268 261 256 252 246
250 251 254 259 265 267 272 275 276 278 283 286 289 293 298 302 307 306 310 312 317 325 332 333 336 336 336 335 334 333 332 331 328 327 326 323 319 316 312 307 301 295 287 279 269 261 255 251 245
245 247 251 257 259 265 269 271 267 273 277 281 285 290 296 300 303 305 308 309 318 327 331 332 333 335 336 335 334 333 333 332 330 329 328 325 322 319 314 310 305 298 290 281 272 263 256 250 244
242 246 250 254 257 263 266 268 268 272 270 276 286 286 289 293 296 299 302 309 318 324 329 331 333 334 336 335 335 334 333 332 331 331 330 329 326 322 318 313 309 302 293 284 274 264 257 251 244
243 241 245 250 254 259 262 264 265 271 273 277 283 286 287 288 292 295 300 307 316 321 326 329 332 334 336 336 336 335 334 333 332 332 333 332 329 326 322 317 311 305 297 288 277 266 258 252 245
241 237 242 250 250 258 262 264 262 267 266 271 279 284 286 285 289 292 300 309 314 318 322 327 331 334 337 339 339 337 336 335 334 334 335 333 332 329 325 320 314 308 300 291 280 270 261 253 246
232 232 239 250 253 260 261 265 271 273 270 264 272 281 285 284 284 290 297 304 309 315 321 326 330 334 337 340 341 339 338 337 338 337 337 336 335 333 330 324 318 313 305 294 281 271 263 253 245
231 232 234 243 251 261 267 272 273 274 271 266 271 277 280 281 281 287 292 299 307 313 318 325 330 334 337 340 341 341 341 340 340 340 340 339 338 337 335 331 325 319 310 299 285 272 264 254 245
230 231 234 242 252 262 269 271 274 268 267 265 266 272 280 284 282 282 287 296 303 310 316 323 329 334 336 339 342 343 344 344 343 342 341 341 340 339 337 335 331 324 316 306 293 278 267 256 247
227 228 234 241 253 265 265 272 278 278 274 268 266 271 276 279 281 282 285 293 300 306 313 321 328 332 336 339 341 344 345 346 345 344 343 343 343 342 340 338 336 329 322 312 299 284 271 256 248
223 225 235 243 253 263 265 266 278 288 284 268 267 272 274 277 280 283 286 290 297 305 313 321 326 330 334 338 341 344 345 346 347 347 347 347 346 346 345 343 341 338 331 322 308 290 274 257 249
220 222 231 238 241 255 255 257 267 275 278 275 271 276 276 277 277 280 284 288 295 303 311 319 325 329 334 338 341 343 345 346 348 348 349 350 349 348 348 346 345 342 337 331 319 300 281 264 251
213 220 220 220 227 244 259 264 257 264 271 278 278 275 277 275 276 277 281 286 293 301 309 317 323 329 334 337 341 343 345 347 348 349 350 350 350 349 349 349 348 345 341 337 329 311 291 272 254
212 220 218 221 227 244 266 266 265 276 276 276 277 277 278 277 276 276 278 285 292 299 307 316 322 328 333 337 340 342 345 348 350 351 352 352 352 353 353 352 351 350 348 344 338 328 304 279 258
225 219 218 227 241 259 247 277 290 282 274 271 271 274 274 273 274 276 277 283 290 298 306 314 321 327 331 335 339 341 344 348 350 352 353 355 355 356 356 355 355 355 353 351 348 339 320 293 269
230 227 224 228 242 223 218 257 274 295 291 278 276 276 273 272 274 274 276 282 289 296 303 310 318 325 329 333 337 340 344 346 349 352 354 356 357 358 359 358 359 359 358 355 351 345 332 312 285
226 224 228 230 234 233 251 253 275 291 293 287 282 281 280 275 273 272 272 277 285 293 300 306 315 322 327 331 334 338 341 344 348 351 353 356 358 0 1 360 360 360 360 357 354 351 343 329 303
243 233 231 239 233 241 262 275 281 290 290 288 283 281 282 277 273 272 272 275 282 289 296 303 311 319 324 328 331 336 339 342 345 349 352 355 357 359 1 2 2 1 1 2 1 358 351 342 324
Height
5875 5874 5873 5873 5873 5872 5871 5870 5869 5869 5869 5868 5867 5867 5867 5867 5867 5869 5866 5864 5863 5863 5862 5861 5861 5860 5859 5859 5859 5858 5858 5858 5857 5857 5857 5857 5857 5857 5857 5857 5858 5858 5859 5860 5860 5861 5862 5863 5864
5875 5874 5874 5873 5872 5871 5870 5869 5868 5868 5868 5867 5867 5866 5866 5866 5865 5865 5863 5863 5862 5862 5860 5859 5859 5858 5857 5857 5856 5856 5855 5855 5855 5854 5854 5854 5854 5854 5854 5854 5854 5855 5855 5856 5857 5858 5859 5860 5861
5874 5873 5874 5873 5871 5870 5870 5869 5868 5868 5867 5866 5866 5866 5865 5865 5864 5863 5862 5862 5861 5860 5859 5858 5857 5856 5855 5855 5854 5853 5853 5852 5852 5851 5851 5851 5850 5850 5850 5850 5851 5851 5852 5853 5854 5855 5856 5857 5858
5873 5873 5873 5873 5871 5870 5869 5868 5867 5867 5866 5865 5865 5865 5864 5864 5863 5862 5861 5860 5860 5859 5858 5857 5856 5855 5854 5853 5852 5851 5850 5850 5849 5848 5848 5847 5847 5846 5846 5847 5847 5847 5848 5849 5850 5851 5852 5854 5855
5872 5872 5872 5871 5869 5869 5868 5867 5866 5866 5865 5865 5864 5864 5863 5863 5862 5861 5860 5860 5859 5858 5857 5856 5855 5854 5853 5851 5850 5849 5848 5847 5846 5845 5845 5844 5844 5843 5843 5843 5843 5843 5844 5845 5846 5847 5848 5849 5851
5870 5870 5870 5869 5867 5867 5866 5865 5865 5864 5864 5863 5863 5863 5862 5862 5861 5860 5859 5859 5858 5857 5856 5855 5853 5852 5851 5850 5848 5847 5846 5845 5844 5843 5842 5841 5840 5839 5839 5838 5839 5839 5839 5840 5841 5842 5844 5845 5846
5869 5868 5867 5867 5865 5865 5864 5864 5863 5863 5863 5862 5861 5862 5861 5861 5860 5859 5858 5858 5857 5856 5855 5853 5852 5851 5850 5848 5847 5845 5844 5843 5841 5840 5839 5838 5837 5836 5835 5834 5834 5834 5835 5835 5836 5838 5839 5840 5842
5865 5866 5865 5864 5863 5863 5862 5862 5862 5862 5861 5861 5861 5860 5860 5860 5859 5858 5857 5857 5855 5854 5853 5852 5851 5850 5848 5847 5845 5843 5842 5840 5839 5837 5836 5835 5833 5832 5831 5830 5830 5830 5830 5830 5831 5832 5834 5835 5837
5862 5864 5863 5862 5861 5861 5861 5861 5860 5860 5860 5860 5859 5859 5859 5859 5858 5857 5856 5855 5854 5853 5852 5851 5850 5848 5846 5845 5843 5841 5839 5838 5836 5834 5833 5831 5829 5828 5827 5826 5825 5825 5825 5825 5826 5827 5829 5830 5832
5859 5860 5860 5859 5859 5859 5859 5859 5859 5858 5858 5858 5858 5858 5857 5857 5856 5856 5855 5854 5853 5852 5851 5849 5848 5846 5844 5843 5841 5839 5837 5835 5833 5831 5829 5827 5825 5824 5822 5821 5820 5820 5819 5820 5820 5821 5823 5825 5826
5854 5856 5856 5855 5856 5857 5857 5857 5857 5857 5857 5857 5857 5856 5856 5855 5855 5854 5853 5853 5852 5851 5850 5848 5847 5845 5843 5841 5839 5837 5835 5833 5830 5828 5826 5824 5821 5819 5818 5816 5815 5814 5814 5814 5815 5816 5817 5819 5821
5851 5851 5853 5854 5854 5855 5855 5855 5855 5855 5855 5855 5855 5855 5854 5854 5853 5852 5852 5851 5850 5849 5848 5847 5845 5843 5842 5839 5837 5835 5833 5830 5828 5825 5822 5820 5817 5815 5813 5811 5810 5809 5809 5809 5809 5810 5811 5813 5815
5846 5848 5849 5851 5851 5852 5852 5853 5853 5853 5853 5853 5853 5853 5853 5852 5852 5851 5850 5849 5848 5848 5847 5846 5844 5842 5840 5838 5835 5833 5830 5828 5825 5822 5819 5816 5814 5811 5809 5806 5805 5804 5803 5803 5803 5804 5805 5807 5809
5840 5843 5845 5846 5848 5849 5850 5851 5851 5851 5851 5851 5851 5851 5851 5850 5850 5850 5849 5848 5847 5846 5846 5844 5843 5841 5838 5836 5833 5831 5828 5825 5822 5819 5816 5813 5810 5807 5804 5802 5800 5798 5797 5797 5797 5798 5800 5801 5804
5837 5840 5842 5843 5844 5846 5848 5848 5847 5848 5849 5849 5849 5849 5849 5849 5849 5848 5847 5847 5846 5845 5844 5843 5841 5839 5837 5834 5831 5828 5825 5822 5819 5816 5813 5809 5806 5803 5800 5797 5795 5793 5792 5791 5791 5792 5794 5795 5798
5833 5837 5839 5841 5842 5843 5846 5846 5845 5846 5847 5847 5847 5847 5848 5847 5847 5847 5846 5845 5844 5844 5843 5841 5840 5838 5835 5832 5829 5826 5823 5820 5817 5813 5810 5806 5802 5799 5795 5792 5790 5788 5786 5786 5785 5786 5788 5789 5791
5830 5833 5836 5838 5839 5840 5842 5843 5843 5844 5844 5845 5846 5846 5846 5846 5845 5845 5844 5844 5843 5842 5841 5840 5838 5836 5834 5831 5828 5824 5821 5818 5814 5811 5807 5803 5799 5795 5791 5788 5785 5783 5781 5780 5780 5781 5782 5783 5785
5828 5831 5833 5834 5836 5837 5838 5839 5840 5841 5841 5843 5843 5844 5844 5844 5844 5844 5843 5842 5842 5841 5840 5839 5837 5835 5832 5829 5826 5823 5819 5816 5812 5808 5804 5800 5796 5792 5788 5784 5781 5779 5777 5776 5775 5775 5776 5778 5780
5825 5828 5831 5832 5833 5835 5836 5837 5838 5839 5839 5841 5841 5842 5842 5842 5842 5842 5841 5841 5840 5839 5838 5837 5835 5833 5831 5828 5824 5821 5818 5814 5810 5806 5801 5797 5793 5789 5785 5781 5777 5775 5772 5771 5770 5771 5771 5772 5774
5823 5826 5829 5830 5831 5833 5834 5836 5837 5837 5838 5839 5839 5840 5840 5840 5840 5840 5840 5839 5839 5838 5837 5836 5834 5832 5829 5826 5823 5820 5816 5812 5807 5803 5799 5795 5790 5786 5782 5778 5774 5771 5768 5767 5766 5766 5766 5767 5769
5822 5824 5827 5828 5830 5831 5833 5835 5835 5836 5836 5837 5838 5838 5838 5839 5839 5839 5838 5838 5837 5837 5836 5834 5832 5830 5828 5825 5822 5818 5814 5810 5806 5802 5797 5793 5788 5783 5779 5775 5771 5767 5765 5763 5762 5762 5762 5763 5765
5820 5823 5825 5827 5828 5829 5832 5833 5833 5833 5834 5835 5836 5837 5837 5837 5837 5837 5837 5836 5836 5835 5834 5833 5831 5829 5826 5823 5820 5817 5813 5809 5804 5800 5795 5791 5786 5781 5777 5772 5768 5765 5762 5760 5759 5758 5758 5759 5760
5819 5822 5824 5826 5828 5829 5830 5832 5832 5831 5832 5833 5834 5835 5835 5835 5835 5835 5835 5835 5834 5834 5833 5831 5830 5827 5825 5822 5819 5815 5812 5807 5803 5798 5794 5789 5784 5780 5775 5770 5766 5763 5760 5758 5756 5755 5755 5755 5756
5819 5822 5823 5825 5827 5828 5830 5831 5831 5830 5830 5831 5832 5833 5833 5834 5834 5834 5833 5833 5833 5832 5831 5830 5828 5826 5824 5821 5818 5814 5810 5806 5802 5797 5793 5788 5783 5779 5774 5769 5765 5761 5758 5755 5753 5752 5752 5752 5753
5819 5821 5823 5824 5826 5827 5829 5830 5830 5829 5830 5831 5831 5831 5832 5832 5832 5832 5832 5831 5831 5830 5829 5828 5826 5825 5822 5819 5816 5813 5809 5805 5801 5796 5792 5787 5782 5777 5773 5768 5764 5760 5757 5754 5752 5750 5749 5750 5750
5818 5820 5822 5824 5825 5826 5827 5828 5829 5829 5829 5830 5830 5830 5830 5830 5830 5830 5830 5830 5829 5829 5828 5826 5825 5823 5821 5818 5815 5812 5808 5804 5800 5796 5791 5786 5781 5777 5772 5767 5763 5759 5756 5753 5750 5748 5748 5748 5748
5818 5819 5821 5823 5824 5825 5827 5828 5827 5827 5828 5828 5828 5828 5828 5828 5828 5828 5828 5828 5827 5827 5826 5825 5823 5822 5819 5817 5814 5811 5807 5804 5800 5795 5791 5786 5781 5776 5771 5767 5762 5759 5755 5752 5749 5747 5747 5746 5746
5818 5820 5821 5822 5823 5825 5827 5827 5826 5825 5826 5826 5826 5826 5826 5826 5826 5826 5826 5826 5825 5825 5824 5823 5822 5820 5818 5815 5813 5810 5806 5803 5799 5795 5790 5786 5781 5776 5771 5767 5762 5759 5755 5752 5749 5747 5746 5745 5745
5818 5819 5820 5821 5823 5824 5825 5827 5824 5825 5824 5824 5824 5823 5823 5823 5823 5824 5824 5823 5823 5823 5822 5821 5820 5818 5816 5814 5811 5808 5805 5802 5798 5794 5790 5786 5781 5777 5772 5767 5763 5759 5755 5752 5749 5747 5745 5744 5744
5817 5818 5819 5821 5822 5823 5823 5826 5822 5822 5822 5822 5821 5821 5821 5821 5821 5821 5821 5821 5821 5820 5820 5819 5818 5816 5814 5812 5810 5807 5804 5801 5798 5794 5790 5786 5781 5777 5773 5768 5764 5760 5756 5753 5750 5748 5745 5744 5743